[Date Prev][Date Next][Thread Prev][Thread Next][Date Index][Thread Index]

[jamsat-news:1083] jas2info #136



=========================   最新情報   ==============================

        Last updated :Mon.10-May.-1999 18:35 (JST) #136

====================================================================
   
     衛星情報 FOシリーズの軌道要素、テレメトリ、QSOの状況等を
   まとめてみました.

  1)  FO−29(ふじ3号)は、5月10日(月)13:35(JST)の
     パスではJARLのホームページのとうり最初「モズ」の鳴き声と「This is
     JAS−2」のアナウンスでFMディジトーカの運用でしたが13:40
    (JST)頃からJAアナログモードに切換えられ運用され始めました. 
       
 ■ 軌道要素1:「jamsat−keps:887」より
              SB KEPS @ AMSAT  $ORB99127.N
              Line Orbital Elements 99127.AMSAT

  HR AMSAT ORBITAL ELEMENTS FOR AMATEUR SATELLITES IN NASA FORMAT
  FROM WA5QGD FORT WORTH,TX May 7, 1999
  SEND SUBSCRIBE/UNSUBSCRIBE TO majordomo@amsat.org ONLY
  BID: ORB99127.N

 DECODE 2-LINE ELSETS WITH THE FOLLOWING KEY:
 1 AAAAAU 00  0  0 BBBBB.BBBBBBBB  .CCCCCCCC  00000-0  00000-0 0  DDDZ
 2 AAAAA EEE.EEEE FFF.FFFF GGGGGGG HHH.HHHH III.IIII JJ.JJJJJJJJKKKKKZ
 KEY: A-CATALOGNUM B-EPOCHTIME C-DECAY D-ELSETNUM E-INCLINATION F-RAAN
 G-ECCENTRICITY H-ARGPERIGEE I-MNANOM J-MNMOTION K-ORBITNUM Z-CHECKSUM

 TO ALL RADIO AMATEURS BT

  FO-29
  1 24278U 96046B   99125.38292513  .00000019  00000-0  56786-4 0  2435
  2 24278  98.5574  82.2568 0351111 204.9163 153.4662 13.52667251134026
   
 ■ 軌道要素2:「jamsat−keps:888」より
                 SB KEPS @ AMSAT  $ORB99127.O
                 Orbital Elements  99127.OSCAR

  HR AMSAT ORBITAL ELEMENTS FOR OSCAR SATELLITES
  FROM WA5QGD FORT WORTH,TX May 7, 1999
  END SUBSCRIBE/UNSUBSCRIBE TO majordomo@amsat.org ONLY
  BID: ORB99127.O
  TO ALL RADIO AMATEURS BT

  Satellite: FO-29
  Catalog number: 24278
  Epoch time:      99125.38292513
  Element set:     243
  Inclination:       98.5574 deg
  RA of node:        82.2568 deg
  Eccentricity:    0.0351111
  Arg of perigee:   204.9163 deg
  Mean anomaly:     153.4662 deg
  Mean motion:   13.52667251 rev/day
  Decay rate:        1.9e-07 rev/day^2
  Epoch rev:           13402
  Checksum:              304
 -----------------------------------------------------------
  2)FO−29(ふじ3号)の 5月10日(月)のJAアナログテレメトリの
    一部分は次のようになっていました.
 
   AS13469C1     10May99
   JST 15:25 - 15: 35
                                           84 60 93 90 B0 97 B7 B5 B6 B6 B3 
 HI HI AE 07 88 55 00 CE 7D 50 09 46 85 4E 6A 60 93 90 B0 8A B6 B5 B6 B6 B3 
 HI HI AE 07 88 55 00 CE DA 50 09 46 4C 63 6E 60 93 8F B0 86 B7 B5 B6 B6 B3 
 HI HI AE 07 88 55 00 CE DA 50 09 47 95 7E 69 60 93 90 B0 73 B6 B5 B6 B6 B3 
 HI HI AE C7 88 55 00 CE 6A 51 09 44 5F 38 8B 60 93 90 B0 71 B6 B5 B6 B6 B3 
 HI HI AE C7 88 55 00 CE 0D 52 09 4F 70 7F 86 5F 94 92 A0 87 B6 B5 B6 B6 B3 
 HI HI AE C7 88 55 00 CE 0D 52 09 4F 8E 4C 71 60 93 90 B0 8B B6 B4 B6 B6 B3 
 HI HI AE C7 88 55 00 CE D1 52 09 49 54 4C 7F 49 93 91 B0 7B B6 B5 B6 B6 B3 
 HI HI AE C7 88 55 00 CE D1 52 09 49 96 76 68 5F 92 8F B0 7D B6 B4 B6 B5 B3 
 HI HI AE C7 88 55 00 CE AD 53 09 5B 68 2F 89 5F 92 8F B0 7F B6 B4 B6 B5 B3 
 HI HI AE C7 88 55 00 CE AE 53 09 54 78 6C 7D 60 92 8F B0 85 B6 B4 B5 B5 B3
 HI HI AE C7 88 55 00 CE 7D 54 09 54 90 45 82 5F 92 90 B0 89 B6 B4 B5 B5 B3 
 HI HI AE C7 88 51 00 D2 38 55 09 50 55 3B 7D 60 92 90 B0 84 B6 B4 B5 B5 B3 
 HI HI AE C7 88 51 00 0E 38 55 09 50  D 68 71 5F 93 90 B0 7D B5 B4 B5 B5 B3 
 HI HI AE C7 88 51 00 E0 9A 55 09 74 6A 2B 81 60 93 90 B0 7F B5 B4 B5 B5 B3 

   AS13468C1     10May99
   JST   13:45 - 13:50

 HI HI AE C7 08 51 1D CD FF 0D 01 60 46 82 6D 60 93 90 B0 81 B6 B4 B4 B5 B4 
 HI HI AE C7 08 51 1D CD FF 0D 01 60 58 33 8A 5F 93 90 B0 8D B6 B4 B4 B5 B3 
 HI HI AE C7 88 51 1D CE FF 0D 01 60 74 72 81 60 93 90 B0 81 B6 B4 B4 B5 B4 
 HI HI AE C7 88 51 1D CE FF 0D 01 60 66       60 93 90 B0 74 B5 B4 B4 B5 B4
 HI HI AE C7 88 51 1D CE FF 0D 09 60 55 8E 6C 60 93 90 B6 77 B6 B3 B4 B5 B3 
 HI HI AE C7 88 51 00 CE FF 0D 09 60 41 3A 8D 60 93 90 B0 6B B5 B3 B3 B4 B4 
 HI HI AE C7 88 51 00 CE FF 0D 09 60 88 57 85 60 93 90 B0 71 B5 B3 B3 B4 B4 
 HI HI AE C7 88 51 00 BE FF 0D 09 60 2B 85 7E 60 94 91 B0 86 B5 B3 B3 B4 B4
  
 3)  JAアナログテレメトリの 5月10日(月)の
    AS13468C1     10May99
    JST  15:25 - 15:35のパスの最終行の換算値例.

  テレメトリ    内   容	       換算値  単 位
 3C	磁気センサーZ軸=	51960.8	nT
 3D	磁気センサX軸	=	21078.4	nT
 4A	太陽電池発生電流=	 1264.7	mA
 4B	B充放電電流	= 	 -118.4	mA
 4C	B端子電圧	=	   15.8	V
 4D	B中間端子電圧	=	    6.9	V
 5A	バス電圧	=	   17.3	V
 5B	JTA送信電力	=	  727.4	mW
 5C 	構体温度1	=	   11.6	℃
 5D	構体温度2	=	   12.0	℃
 6A	構体温度3	=	   11.6	℃
 6B	構体温度4	=	   11.6	℃
 6C	Bセル温度	=	   12.4	℃

 *計算処理は OFFICE 97 を使用.

===============   FO−29(ふじ 3号)のFMデジトーカ について   ===================

    「jamsat-bb:」にJE9PEL/1局 脇田氏とJH1UNS局の小礒光信氏の問答が投稿されていましたので
   転載させて頂きました.

   脇田さんwrote: Thursday, May 06, 1999 7:42 PM

  |  ところで、本日(5/6)も固定機(プリアンプ付き)でデジトーカーを聞い
  |  てみたところ、女性の声の『This is JAS-2.』に続く小鳥の鳴き声が、
  |  『キュルルル....キュンキュン』であることがわかりました。
  | 
  |  この鳴き声は何の小鳥なのか「鳥類図鑑」で調べてみましたが、出て
  |  いませんでした。おわかりになる方はいますか?
    本日,鳥の種類をJARL技術研究所に尋ねてみました.
    答えは「モズ」だそうです.
    取り急ぎお知らせまで.
    では.                       JH1UNS 小礒光信

                    mailto:LDM00662@nifty.ne.jp
  小礒さん、ありがとうございました。
 あの鳴き声は『百舌(モズ)』でしたか。衛星FO-29のデジトーカーは、
 初期の『郭公(カッコウ)』から始まり、先月は『鶯(ウグイス)』でし
 たので、今回も身近な小鳥だとは思いましたが、あまり聞いたことの
 ない鳴き声でしたので、鳥類図鑑を引っ張り出して調べていたところ
 でした。 FO-29にはいろいろな鳥が住んでいるのですね。 Hi..

 ----------------------------------------------
 Name : JE9PEL/1 脇田
 Mail : je9pel@jamsat.or.jp
 URL  : http://www.ne.jp/asahi/hamradio/je9pel/
 QTH  : Yokohama, Japan
 Date : 7 May. 1999
 ----------------------------------------------  
==============================================================================
  4)FO−20(ふじ2号)のCWテレメトリは5月10日(月)18:27(JST)の
     パスではテレメトリーが単一トーンの連続音から唸りを伴った連続音、さらにゆらぎの
     ある信号になり、いままでより若干信号が弱くなっていました.
---------------------------------------------------------------------------

 ■ 軌道要素1 :出典は「ふじ3号」に同じ. 
  
  FO-20
  1 20480U 90013C   99125.14272641 -.00000030  00000-0  12693-4 0  1384
  2 20480  99.0292 328.0560 0539810 262.1033  91.8494 12.83251491432813
 
 ■ 軌道要素2 :出典は「ふじ3号」に同じ.  
               
  Satellite: FO-20
  Catalog number: 20480
  Epoch time:      99125.14272641
  Element set:     138
  Inclination:       99.0292 deg
  RA of node:       328.0560 deg
  Eccentricity:    0.0539810
  Arg of perigee:   262.1033 deg
  Mean anomaly:      91.8494 deg
  Mean motion:   12.83251491 rev/day
  Decay rate:       -3.0e-07 rev/day^2
  Epoch rev:           43281
  Checksum:              283

  ====================    FO-20のQSOの状況 ==========================
   
  久しぶりにFO−20のCWによるQRVの状況がJA6BX局江崎さんが
 [jamsat:bb−4339]に投稿されてましたので転載させて頂きます.

   今日 19:10(JST) に 当局の LOS 直前でしたが、JA0SUQ/JD1 斉藤さんが南鳥島
 から FO-20 に CW で QRV されていました。 

          Yoshio Esaki
          esaki@m2.people.or.jp
          ja6bx@jamsat.or.jp 
          ja6bx@amsat.org

  =====================================================================

 5)JARL のホームページに新しい運用追加予定が記載されていましたのでご紹介します.
       ( http://www.jarl.or.jp/Japanese/3_Fuji/uy.htm )

        ■ ふじ3号/FO−29 ■  
  
  ふじ3号(JAS−2) 運用予定      
  
 ☆☆デジトーカ運用を4月30日〜5月10日に運用☆☆ 

  *** 運用日程について ***
     
   4月12日 〜 4月27日     アナログ系運用
   ☆4月30日  〜  5月10日   デジトーカ運用(:FM音声メッセージ送信)
   5月10日 〜 5月17日     アナログ系運用
   5月17日 〜 5月24日     デジタル系1200bpsメールボックス運用
   5月24日 〜 5月31日     アナログ系運用

  *** 運用日程の変更について ***

 ☆4月28日からのデジトーカ運用は音声データのアップリンクが混信等の影響を受け
  てデータがUPしませんので予定を変更して,デジトーカ運用は4月30日から5月10日迄
   行うことと致します。

 ☆4月30日から5月6日に行うデジトーカ運用の音声送信メッセージは新データUP予定ですので
   お楽しみ下さい。

     ※運用日程の変更についても詳しく閲覧できるようになっていますので参照下さい.

        ■ ふじ2号/FO−20 ■      
            「ふじ2号」 現況                                                                                               
   JAS-1b/FO-20(ふじ2号)の不具合発生について
    JAS-1b(ふじ2号)のCWテレメトリ信号に,1997年10月12日12時
 (JST)の日本上空通過時,3桁の数字が繰り返されるはずが3個の長音の
  繰り返しとなっているという異常が発見されました。この不具合は次の通過時
  からは回復していましたが13日15時20分の通過時に再び観測されました。
  衛星のアナログ系中継モード動作は異常が無く,正常時のテレメトリ内容からは
  衛星の動作に異常は認められません。従って,直ちに衛星のミッションに影響す
  ることは無いと予想されますので,当面はアナログ系中継モードを継続します。
  衛星は既に打ち上げてから7年8ヶ月を経ておりますので,今後は監視を強化す
  る予定です。アマチュア各位のレポートをお待ちします.   
  
  以上  http://www.jarl.or.jp/Japanese/3_Fuji/fuji.htm
                                           
   =============   JAS-2 (ふじ3号)と現在までの情報   ===========
  
  A.電話によるふじ3号の運用情報
      社団法人日本アマチュア連盟によるサービス
           TEL .   03− 3942 − 1000
  B.アマチュア無線FAXサービス
      JARLによるふじ3号の軌道情報(オービットカレンダー)
         FAX No.  03− 3233 −0055
  C.WWWブラウザで情報を簡単に見れる人のためにJAS−2
     ふじ3号の衛星としての運用されるまでの名前)の概要、打ち上げ
     までの状況、運用中における状況を説明したホームページを紹介し
     ておきます.
     社団法人日本アマチュア無線連盟(JARL)のホームページ

          http://www.jarl.or.jp/Japanese/3_Fuji
 
     宇宙開発事業団(NASDA)ホームページ 
          http://www.nasda.go.jp/
         打上げ衛星 :地球観測プラットフォーム技術衛星(ADEOS) 
                       アマチュア衛星3号(JAS-2)
          http://yyy.tksc.nasda.go.jp/Home/Press/Press-j/jas-2_j.html        

  D.JAMSATによる軌道情報の活用
        JAMSATのホームページまたはjamsat−kepsの軌道要素より
      衛星の軌道情報を得る.
     JAMSATホームページ
               URL    http://www.jamsat.or.jp
       上記ホームページでは各地で行われるアマチュア通信衛星に関する
      ミューティングのお知らせや世界のアマチュア衛星に関する情報が
      満載されています.
   
 =========================================================================
       JAMSATのメンバーのご協力によりJH6MME(高山 秀造)が
    執筆・編集を担当しております.ご指摘の意見、疑問やこのようにしたら
    というアイデアがありましたら小さなことでもかまいませんので気軽に下
    記アドレスまでご連絡ください.jamsat−newsからjas2
    infoへの転載をJH4PHW局坂井さんに担当して頂いております.
                    E-mail : jh6mme@jamsat.or.jp : jh4phw@jamsat.or.jp
 ===============================   END  ===============================